Location: Limoges
(45.8354°N, 1.2645°E)
Time: 10:32:18
(UTC+01:00)

A-11 Canister half - Visible Passes

Search period start: 25 February 2024 00:00
Search period end: 06 March 2024 00:00
Orbit: 1526 x 1682 km, 47.3° (Epoch: 24 February)

Date Brightness Start Highest point End Pass type
(mag) Time Alt. Az. Time Alt. Az. Time Alt. Az.
25 Feb 10.1 04:10:27 27° SSE 04:10:27 27° SSE 04:14:18 10° SE visible
25 Feb 10.2 06:08:47 15° SW 06:08:47 15° SW 06:13:31 10° SSW visible
25 Feb 10.2 19:19:51 10° SSE 19:25:40 18° SE 19:30:29 12° E visible
25 Feb 9.0 21:19:54 10° SW 21:28:50 54° SSE 21:28:50 54° SSE visible
25 Feb 10.5 23:24:16 10° WSW 23:27:11 23° WSW 23:27:11 23° WSW visible
26 Feb 10.5 03:50:38 18° SSE 03:50:38 18° SSE 03:52:39 10° SE visible
26 Feb 10.3 05:48:59 15° SW 05:48:59 15° SW 05:52:17 10° SSW visible
26 Feb 10.3 18:58:32 10° SSE 19:04:02 17° SE 19:09:26 10° E visible
26 Feb 9.0 20:58:14 10° SW 21:07:23 52° SE 21:08:55 48° ESE visible
26 Feb 10.0 23:02:31 10° WSW 23:07:15 35° WSW 23:07:15 35° WSW visible
27 Feb 10.9 03:30:53 10° SE 03:30:53 10° SE 03:31:01 10° SE visible
27 Feb 10.5 05:29:14 14° SSW 05:29:14 14° SSW 05:31:01 10° SSW visible
27 Feb 9.1 20:36:34 10° SW 20:45:41 50° SE 20:48:55 37° E visible
27 Feb 9.4 22:40:45 10° WSW 22:47:15 50° WSW 22:47:15 50° WSW visible
28 Feb 10.7 05:09:32 10° SSW 05:09:32 10° SSW 05:09:42 10° SSW visible
28 Feb 9.2 20:14:55 10° SSW 20:23:59 48° SE 20:28:50 28° E visible
28 Feb 9.0 22:18:58 10° WSW 22:27:10 70° WSW 22:27:10 70° WSW visible
29 Feb 10.9 00:24:23 10° W 00:25:30 14° W 00:25:30 14° W visible
29 Feb 9.3 19:53:15 10° SSW 20:02:17 47° SE 20:08:41 20° E visible
29 Feb 8.8 21:57:13 10° WSW 22:06:48 88° SSE 22:07:00 86° ESE visible
01 Mar 10.5 00:02:37 10° W 00:05:20 22° W 00:05:20 22° W visible
01 Mar 9.4 19:31:38 10° SSW 19:40:36 45° SE 19:48:28 13° ENE visible
01 Mar 8.8 21:35:27 10° WSW 21:45:04 87° SSE 21:46:47 65° E visible
01 Mar 10.2 23:40:51 10° W 23:45:05 31° W 23:45:05 31° W visible
02 Mar 9.5 19:09:59 10° SSW 19:18:54 43° SE 19:27:35 10° ENE visible
02 Mar 8.8 21:13:41 10° WSW 21:23:19 85° SSE 21:26:29 49° ENE visible
02 Mar 9.7 23:19:04 10° W 23:24:47 42° WNW 23:24:47 42° WNW visible
03 Mar 8.9 20:51:55 10° WSW 21:01:35 84° SSE 21:06:06 36° ENE visible
03 Mar 9.3 22:57:18 10° W 23:04:25 56° WNW 23:04:25 56° WNW visible
04 Mar 11.1 01:02:33 10° WNW 01:02:43 11° WNW 01:02:43 11° WNW visible
04 Mar 8.9 20:30:09 10° WSW 20:39:50 82° SSE 20:45:42 27° ENE visible
04 Mar 9.0 22:35:31 10° W 22:44:00 72° WNW 22:44:00 72° WNW visible
05 Mar 10.8 00:40:48 10° WNW 00:42:18 16° WNW 00:42:18 16° WNW visible
05 Mar 9.0 20:08:24 10° WSW 20:18:06 81° SSE 20:25:15 20° ENE visible
05 Mar 8.8 22:13:44 10° W 22:23:20 82° N 22:23:32 82° NNE visible
